Regional Weather Roundup
Issued by NWS

Home | Current Version | Previous Version | Graphics & Text | Print | Product List | Glossary On
Versions: 1 2 3 4 5 6 7 8 9 10 11 12 13 14 15 16 17 18 19 20 21 22 23 24 25 26 27 28
000
ASUS45 KCYS 290710
RWRWY

WYOMING REGIONAL WEATHER ROUNDUP
NATIONAL WEATHER SERVICE CHEYENNE WY
100 AM MDT FRI APR 29 2016

NOTE:  "FAIR" INDICATES FEW OR NO CLOUDS BELOW 12,000 FEET
WITH NO SIGNIFICANT WEATHER AND/OR OBSTRUCTIONS TO VISIBILITY.

WYZ001-290800-
YELLOWSTONE NATIONAL PARK

CITY           SKY/WX    TMP DP  RH WIND       PRES   REMARKS
LK YELLOWSTONE   N/A     28  22  78 CALM      29.96S
W YELLOWSTONE  NOT AVBL

$$
WYZ002>013-054>058-071-098>099-290800-
NORTHERN WYOMING

CITY           SKY/WX    TMP DP  RH WIND       PRES   REMARKS
JACKSON        CLOUDY    36  32  87 N3        29.94S
CODY           CLOUDY    34  30  86 CALM      30.03S
GREYBULL       CLOUDY    42  33  70 VRB3      30.04S
WORLAND        CLOUDY    40  30  67 SE8       30.04S WCI  34
SHERIDAN       CLOUDY    37  32  82 E3        30.07S
BUFFALO          N/A    N/A N/A N/A MISG      30.07S
GILLETTE       CLOUDY    34  33  96 CALM      30.08S
HULETT         CLOUDY    36  32  87 CALM      30.10S
NEWCASTLE      CLOUDY    34  34 100 CALM      30.10F

$$
WYZ014>020-022>026-101>103-290800-
CENTRAL WYOMING

CITY           SKY/WX    TMP DP  RH WIND       PRES   REMARKS
BIG PINEY      CLOUDY    32  25  75 SW9       29.98S WCI  24
PINEDALE       CLOUDY    32  27  80 W3        29.98S
DUBOIS         CLOUDY    27  25  93 SE10G16   30.00S WCI  17
LANDER         CLOUDY    33  28  81 N5        30.03F WCI  29
RIVERTON       CLOUDY    34  27  75 E3        30.05F
CASPER         CLOUDY    32  28  85 NE9       30.04F WCI  24
DOUGLAS        CLOUDY    33  32  96 NE3       30.07S

$$
WYZ021-027>030-104>119-290800-
SOUTHERN WYOMING

CITY           SKY/WX    TMP DP  RH WIND       PRES   REMARKS
EVANSTON       CLOUDY    31  27  85 NE14      29.91F WCI  21
FORT BRIDGER   CLOUDY    32  32 100 E15       29.95F WCI  22
ROCK SPRINGS   CLOUDY    31  25  78 NE16      29.94F WCI  20
DIXON          FAIR      35  33  93 E5        29.94S WCI  31
RAWLINS        CLOUDY    31  27  85 NE16      29.96F WCI  20
SARATOGA       FAIR      30  30 100 W12       29.96S WCI  21
LARAMIE        CLOUDY    29  28  96 SE14      29.98S WCI  18
CHEYENNE       CLOUDY    32  31  96 SE9       30.03R WCI  24
TORRINGTON     CLOUDY    36  34  92 NE8       30.08S WCI  30
PINE BLUFFS    CLOUDY    32  32 100 E7        30.07S WCI  26

$$




USA.gov is the U.S. government's official web portal to all federal, state and local government web resources and services.